Location: Bern�tre
(50.1974°N, 2.0915°E)
Time: 04:36:45
(UTC+00:00)

SPOT 5 - Pass Details

Date: 18 September 2020
Orbit: 623 x 815 km, 98.3° (Epoch: 29 October)

Event Time Altitude Azimuth Distance (km) Brightness Sun altitude
Exits shadow 20:40:12 38° 54° (NE) 1,193 3.8 -25.0°
Drops below altitude 10° 20:44:41 10° 358° (N) 2,397 6.0 -25.6°
Sets 20:47:11 0° 351° (N) 3,345 7.0 -25.9°
